User: anonymous   Login
Location: Unspecified
(0.0000°N, 0.0000°E)
Time: 15:36:34
(UTC+00:00)
Language:

ALSAT 1N - Orbit

View from above orbital plane
View from above orbital plane
View from above satellite
View from above satellite

Ground track
Ground track

The orbit data is extracted from the following two-line orbital elements,

1 41789U 16059G   18345.43284747  .00000103  00000-0  28572-4 0  9992
2 41789  98.0986  45.5077 0027034 248.7002 111.1317 14.64201296117951
Epoch (UTC): 11 December 2018 10:23:18
Eccentricity: 0.0027034
inclination: 98.0986°
perigee height: 660 km
apogee height: 699 km
right ascension of ascending node: 45.5077°
argument of perigee: 248.7002°
revolutions per day: 14.64201296
mean anomaly at epoch: 111.1317°
orbit number at epoch: 11795

The dashed part of the orbit path shows where the satellite is in the earth's shadow,  

DLR